Location: Celina Elementary School
(33.3262°N, 96.7767°W)
Time: 08:37:31
(UTC+00:00)

NOAA 12 - Pass Details

Date: 26 November 2021
Orbit: 795 x 816 km, 98.5° (Epoch: 19 January)

Event Time Altitude Azimuth Distance (km) Brightness Sun altitude
Rises 12:29:58 0° 11° (N) 3,326 7.2 -8.3°
Reaches altitude 10° 12:32:19 10° 10° (N) 2,389 6.5 -7.9°
Maximum altitude 12:37:36 79° 285° (WNW) 820 4.1 -6.8°
Drops below altitude 10° 12:42:49 10° 199° (SSW) 2,362 6.6 -5.8°
Sets 12:45:08 0° 198° (SSW) 3,286 7.3 -5.4°
